Auburn, AL

4:56 PM CDT on August 19, 2019 (GMT -0500)
Auburn-opelika-pitts

Weather History for KAUO - July, 2019

Change the Weather History Date:

Monday, July 15, 2019

  Actual Average Record
Temperature  
Mean Temperature 82 °F -  
Max Temperature 91 °F - 102 °F (1980)
Min Temperature 73 °F - 52 °F (1967)
Cooling Degree Days 17    
Month to date cooling degree days 241  
Year to date cooling degree days 1072  
Since 1 June cooling degree days 656  
Growing Degree Days 32 (Base 50)    
Moisture  
Dew Point 71 °F    
Average Humidity 75    
Maximum Humidity 89    
Minimum Humidity 54    
Precipitation  
Precipitation 0.01 in - 4.12 in (2003)
Month to date precipitation 2.57  
Year to date precipitation 24.51  
Sea Level Pressure  
Sea Level Pressure 30.17 in    
Wind  
Wind Speed 5 mph (SE)    
Max Wind Speed 10 mph    
Max Gust Speed 29 mph    
Visibility 10 miles    
Events Rain , Thunderstorm    
T = Trace of Precipitation, MM = Missing Value Source: NWS Daily Summary

Daily Weather History Graph

Daily Weather History Graph

Search for Another Location

Airport or City:

Astronomy

Jul. 15, 2019 Rise Set
Actual Time 5:44 AM CDT 7:50 PM CDT
Civil Twilight 5:16 AM CDT 8:18 PM CDT
Nautical Twilight 4:42 AM CDT 8:52 PM CDT
Astronomical Twilight 4:06 AM CDT 9:28 PM CDT
Moon 7:05 PM CDT (7/15) 4:32 AM CDT (7/15)
Length of Visible Light 15h 01m
Length of Day
14h 05m
Waxing Gibbous, 99% of the Moon is Illuminated
Jul 15
Waxing Gibbous
Jul 16
Full
Jul 24
Last Quarter
Jul 31
New
Aug 7
First Quarter

Hourly Weather History & Observations

Time (CDT) Temp. Heat Index Dew Point Humidity Pressure Visibility Wind Dir Wind Speed Gust Speed Precip Events Conditions
12:56 AM 73.9 °F - 69.1 °F 85% 30.17 in 10.0 mi ENE 3.5 mph - N/A   Clear
1:56 AM 73.9 °F - 69.1 °F 85% 30.17 in 10.0 mi NE 3.5 mph - N/A   Clear
2:56 AM 73.0 °F - 69.1 °F 87% 30.16 in 10.0 mi NE 3.5 mph - N/A   Clear
3:56 AM 73.0 °F - 69.1 °F 87% 30.16 in 10.0 mi ENE 4.6 mph - N/A   Clear
4:56 AM 73.0 °F - 69.1 °F 87% 30.17 in 10.0 mi ENE 3.5 mph - N/A   Clear
5:56 AM 73.0 °F - 69.1 °F 87% 30.18 in 10.0 mi East 4.6 mph - N/A   Clear
6:56 AM 75.9 °F - 69.1 °F 79% 30.19 in 10.0 mi East 3.5 mph - N/A   Clear
7:56 AM 77.0 °F - 68.0 °F 74% 30.20 in 10.0 mi Calm Calm - N/A   Clear
8:56 AM 81.0 °F 84.1 °F 69.1 °F 67% 30.21 in 10.0 mi ESE 5.8 mph - N/A   Clear
9:56 AM 84.0 °F 89.0 °F 71.1 °F 65% 30.21 in 10.0 mi South 8.1 mph - N/A   Clear
10:56 AM 87.1 °F 92.8 °F 71.1 °F 59% 30.21 in 10.0 mi SSW 10.4 mph - N/A   Clear
11:56 AM 87.1 °F 92.8 °F 71.1 °F 59% 30.20 in 10.0 mi SSW 8.1 mph - N/A   Clear
12:56 PM 88.0 °F 95.6 °F 73.0 °F 61% 30.19 in 10.0 mi South 8.1 mph - N/A   Scattered Clouds
1:56 PM 88.0 °F 93.8 °F 71.1 °F 57% 30.17 in 10.0 mi SSW 10.4 mph - N/A   Scattered Clouds
2:56 PM 90.0 °F 96.4 °F 71.1 °F 54% 30.16 in 10.0 mi Variable 5.8 mph - N/A   Clear
3:23 PM 89.6 °F 96.2 °F 71.6 °F 55% 30.13 in 10.0 mi SW 5.8 mph - N/A Thunderstorm Clear
3:46 PM 78.8 °F - 71.6 °F 78% 30.15 in 9.0 mi West 11.5 mph 28.8 mph 0.00 in Rain Rain
3:54 PM 75.2 °F - 71.6 °F 89% 30.14 in 8.0 mi WNW 12.7 mph - 0.00 in Rain Light Rain
3:56 PM 75.9 °F - 72.0 °F 87% 30.17 in 8.0 mi WNW 10.4 mph - 0.00 in Rain Light Rain
4:56 PM 81.0 °F 86.2 °F 73.9 °F 79% 30.16 in 10.0 mi Calm Calm - 0.01 in   Clear
5:56 PM 84.0 °F 89.6 °F 72.0 °F 67% 30.14 in 9.0 mi SSW 5.8 mph - N/A   Clear
6:56 PM 82.9 °F 88.0 °F 72.0 °F 69% 30.15 in 10.0 mi South 3.5 mph - N/A   Clear
7:56 PM 81.0 °F 85.8 °F 73.0 °F 77% 30.15 in 10.0 mi Calm Calm - N/A   Clear
8:56 PM 80.1 °F 84.2 °F 73.0 °F 79% 30.16 in 10.0 mi SE 4.6 mph - N/A   Clear
9:56 PM 78.1 °F - 72.0 °F 81% 30.17 in 10.0 mi ESE 3.5 mph - N/A   Clear
10:56 PM 77.0 °F - 72.0 °F 84% 30.17 in 10.0 mi ESE 3.5 mph - N/A   Clear
11:56 PM 75.9 °F - 72.0 °F 87% 30.17 in 10.0 mi SE 3.5 mph - N/A   Clear